Weather History for Grants-Milan, NM

Change the Weather History Date:

Saturday, May 25, 2013

  Actual Average Record
Temperature  
Mean Temperature 60 °F -  
Max Temperature 85 °F 78 °F 89 °F (2006)
Min Temperature 36 °F 40 °F 23 °F (1980)
Degree Days  
Heating Degree Days 4    
Growing Degree Days 10 (Base 50)    
Moisture  
Dew Point 10 °F    
Average Humidity 13    
Maximum Humidity 27    
Minimum Humidity 5    
Precipitation  
Precipitation 0.00 in - - ()
Sea Level Pressure  
Sea Level Pressure 30.15 in    
Wind  
Wind Speed 7 mph (WSW)    
Max Wind Speed 23 mph    
Max Gust Speed 34 mph    
Visibility 10 miles    
Events      
Averages and records for this station are not official NWS values.
T = Trace of Precipitation, MM = Missing Value Source: NWS Daily Summary

Daily Weather History Graph

Daily Weather History Graph

Search for Another Location

Airport:

Trip Planner

Search our weather history database for the weather conditions in past years. The results will help you decide how hot, cold, wet, or windy it might be!

Date:

Astronomy

May. 25, 2013 Rise Set
Actual Time 6:01 AM MDT 8:16 PM MDT
Civil Twilight 5:32 AM MDT 8:45 PM MDT
Nautical Twilight 4:56 AM MDT 9:20 PM MDT
Astronomical Twilight 4:18 AM MDT 9:59 PM MDT
Moon 9:08 PM MDT (5/25) 6:30 AM MDT (5/25)
Length of Visible Light 15h 13m
Length of Day
14h 15m
Waxing Gibbous, 99% of the Moon is Illuminated
May 25
Waxing Gibbous
May 31
Last Quarter
Jun 8
New
Jun 16
First Quarter
Jun 23
Full

Hourly Weather History & Observations

Time (MDT) Temp. Windchill Dew Point Humidity Pressure Visibility Wind Dir Wind Speed Gust Speed Precip Events Conditions
12:15 AM 59.2 °F - 10.9 °F 15% 30.17 in 10.0 mi NNW 5.8 mph - N/A   Clear
12:35 AM 55.6 °F - 10.2 °F 16% 30.17 in 10.0 mi NW 3.5 mph - N/A   Clear
12:55 AM 50.4 °F - 8.4 °F 18% 30.17 in 10.0 mi NNW 4.6 mph - N/A   Clear
1:15 AM 55.2 °F - 8.8 °F 16% 30.17 in 10.0 mi Calm Calm - N/A   Clear
1:35 AM 50.7 °F - 8.6 °F 18% 30.18 in 10.0 mi West 3.5 mph - N/A   Clear
1:55 AM 50.7 °F - 8.1 °F 18% 30.17 in 10.0 mi West 3.5 mph - N/A   Clear
2:15 AM 49.5 °F - 8.1 °F 19% 30.17 in 10.0 mi Calm Calm - N/A   Clear
2:35 AM 48.2 °F - 7.9 °F 19% 30.18 in 10.0 mi Calm Calm - N/A   Clear
2:55 AM 47.1 °F - 7.5 °F 20% 30.18 in 10.0 mi Calm Calm - N/A   Clear
3:15 AM 47.5 °F - 7.5 °F 20% 30.18 in 10.0 mi Calm Calm - N/A   Clear
3:35 AM 44.2 °F - 7.0 °F 22% 30.18 in 10.0 mi Calm Calm - N/A   Clear
3:55 AM 42.1 °F - 5.7 °F 22% 30.19 in 10.0 mi Calm Calm - N/A   Clear
4:15 AM 41.9 °F - 6.4 °F 23% 30.19 in 10.0 mi Calm Calm - N/A   Clear
4:35 AM 43.0 °F - 8.4 °F 24% 30.19 in 10.0 mi Calm Calm - N/A   Clear
4:55 AM 41.5 °F - 7.3 °F 24% 30.20 in 10.0 mi Calm Calm - N/A   Clear
5:15 AM 37.4 °F - 4.5 °F 25% 30.20 in 10.0 mi Calm Calm - N/A   Clear
5:35 AM 38.1 °F 34.6 °F 6.4 °F 27% 30.20 in 10.0 mi NNW 4.6 mph - N/A   Clear
5:55 AM 36.1 °F 30.6 °F 4.6 °F 27% 30.20 in 10.0 mi NNW 6.9 mph - N/A   Clear
6:15 AM 37.8 °F 34.2 °F 6.1 °F 27% 30.21 in 10.0 mi NW 4.6 mph - N/A   Clear
6:35 AM 38.7 °F 36.3 °F 6.6 °F 27% 30.22 in 10.0 mi NW 3.5 mph - N/A   Clear
6:55 AM 43.9 °F 41.3 °F 7.5 °F 23% 30.22 in 10.0 mi NNW 4.6 mph - N/A   Clear
7:15 AM 46.2 °F 42.7 °F 8.1 °F 21% 30.23 in 10.0 mi NNW 6.9 mph - N/A   Clear
7:35 AM 47.5 °F - 8.6 °F 21% 30.23 in 10.0 mi NW 5.8 mph - N/A   Clear
7:55 AM 50.2 °F - 8.6 °F 19% 30.24 in 10.0 mi Calm Calm - N/A   Clear
8:15 AM 53.2 °F - 9.5 °F 17% 30.24 in 10.0 mi Calm Calm - N/A   Clear
8:35 AM 58.6 °F - 10.8 °F 15% 30.24 in 10.0 mi ESE 3.5 mph - N/A   Clear
8:55 AM 62.2 °F - 11.3 °F 14% 30.23 in 10.0 mi ESE 4.6 mph - N/A   Clear
9:15 AM 65.7 °F - 12.2 °F 13% 30.23 in 10.0 mi ESE 3.5 mph - N/A   Clear
9:35 AM 68.4 °F - 13.6 °F 12% 30.22 in 10.0 mi East 8.1 mph - N/A   Clear
9:55 AM 70.5 °F - 14.9 °F 12% 30.21 in 10.0 mi East 8.1 mph - N/A   Clear
10:15 AM 73.0 °F - 15.3 °F 11% 30.20 in 10.0 mi ESE 10.4 mph - N/A   Clear
10:35 AM 74.7 °F - 14.9 °F 10% 30.20 in 10.0 mi SSE 10.4 mph 18.4 mph N/A   Clear
10:55 AM 76.1 °F - 14.7 °F 10% 30.19 in 10.0 mi SSE 5.8 mph 17.3 mph N/A   Clear
11:15 AM 77.4 °F - 14.2 °F 9% 30.18 in 10.0 mi SSE 11.5 mph 17.3 mph N/A   Clear
11:35 AM 78.4 °F - 9.3 °F 7% 30.18 in 10.0 mi South 12.7 mph 24.2 mph N/A   Clear
11:55 AM 79.3 °F - 9.3 °F 7% 30.17 in 10.0 mi South 16.1 mph 24.2 mph N/A   Clear
12:15 PM 80.2 °F - 10.0 °F 7% 30.17 in 10.0 mi South 16.1 mph 33.4 mph N/A   Clear
12:35 PM 80.8 °F - 11.1 °F 7% 30.16 in 10.0 mi SW 11.5 mph 26.5 mph N/A   Clear
12:55 PM 81.7 °F - 10.0 °F 7% 30.15 in 10.0 mi SSW 18.4 mph 34.5 mph N/A   Clear
1:15 PM 83.7 °F - 9.1 °F 6% 30.14 in 10.0 mi SSW 13.8 mph 23.0 mph N/A   Clear
1:35 PM 83.8 °F - 7.2 °F 5% 30.14 in 10.0 mi SW 18.4 mph 29.9 mph N/A   Clear
1:55 PM 83.3 °F - 7.5 °F 6% 30.13 in 10.0 mi SSW 19.6 mph 29.9 mph N/A   Clear
2:15 PM 83.3 °F - 8.2 °F 6% 30.12 in 10.0 mi SW 20.7 mph 31.1 mph N/A   Clear
2:35 PM 84.4 °F - 8.1 °F 6% 30.12 in 10.0 mi WSW 17.3 mph 26.5 mph N/A   Clear
2:55 PM 83.8 °F - 9.0 °F 6% 30.11 in 10.0 mi SW 11.5 mph 18.4 mph N/A   Clear
3:15 PM 84.9 °F - 8.8 °F 6% 30.11 in 10.0 mi SW 11.5 mph 27.6 mph N/A   Clear
3:35 PM 84.2 °F - 10.6 °F 6% 30.10 in 10.0 mi West 13.8 mph 19.6 mph N/A   Clear
3:55 PM 84.9 °F - 11.7 °F 6% 30.10 in 10.0 mi WSW 12.7 mph 21.9 mph N/A   Clear
4:15 PM 85.1 °F - 11.5 °F 6% 30.08 in 10.0 mi West 16.1 mph 27.6 mph N/A   Clear
4:35 PM 84.7 °F - 10.2 °F 6% 30.07 in 10.0 mi WSW 23.0 mph 29.9 mph N/A   Clear
4:55 PM 84.9 °F - 10.0 °F 6% 30.08 in 10.0 mi WSW 18.4 mph 24.2 mph N/A   Clear
5:15 PM 84.4 °F - 10.6 °F 6% 30.07 in 10.0 mi SW 10.4 mph 19.6 mph N/A   Clear
5:35 PM 84.2 °F - 10.6 °F 6% 30.06 in 10.0 mi WSW 10.4 mph 20.7 mph N/A   Clear
5:55 PM 83.3 °F - 11.1 °F 7% 30.06 in 10.0 mi West 10.4 mph 19.6 mph N/A   Clear
6:15 PM 83.5 °F - 10.9 °F 7% 30.06 in 10.0 mi West 10.4 mph 21.9 mph N/A   Clear
6:35 PM 82.4 °F - 12.7 °F 7% 30.06 in 10.0 mi WSW 11.5 mph 21.9 mph N/A   Clear
6:55 PM 81.5 °F - 14.0 °F 8% 30.06 in 10.0 mi West 15.0 mph 20.7 mph N/A   Clear
7:15 PM 80.1 °F - 14.9 °F 9% 30.06 in 10.0 mi West 15.0 mph 24.2 mph N/A   Clear
7:35 PM 79.2 °F - 15.3 °F 9% 30.07 in 10.0 mi West 15.0 mph - N/A   Clear
7:55 PM 77.2 °F - 14.7 °F 9% 30.09 in 10.0 mi West 13.8 mph 23.0 mph N/A   Clear
8:15 PM 75.2 °F - 14.0 °F 10% 30.09 in 10.0 mi West 15.0 mph 23.0 mph N/A   Clear
8:35 PM 73.4 °F - 13.8 °F 10% 30.11 in 10.0 mi WNW 9.2 mph - N/A   Clear
8:55 PM 71.2 °F - 14.5 °F 11% 30.11 in 10.0 mi WNW 10.4 mph - N/A   Clear
9:15 PM 71.1 °F - 16.0 °F 12% 30.12 in 10.0 mi WNW 9.2 mph - N/A   Clear
9:35 PM 70.9 °F - 15.4 °F 12% 30.12 in 10.0 mi WNW 11.5 mph 18.4 mph N/A   Clear
9:55 PM 69.3 °F - 13.8 °F 12% 30.13 in 10.0 mi West 12.7 mph 16.1 mph N/A   Clear
10:15 PM 69.4 °F - 12.9 °F 11% 30.14 in 10.0 mi West 13.8 mph 19.6 mph N/A   Clear
10:35 PM 68.2 °F - 11.8 °F 11% 30.15 in 10.0 mi WSW 4.6 mph - N/A   Clear
10:55 PM 65.5 °F - 11.1 °F 12% 30.15 in 10.0 mi West 9.2 mph - N/A   Clear
11:15 PM 64.8 °F - 10.8 °F 12% 30.15 in 10.0 mi West 8.1 mph - N/A   Clear
11:35 PM 59.9 °F - 9.3 °F 14% 30.16 in 10.0 mi West 5.8 mph - N/A   Clear
11:55 PM 60.3 °F - 9.3 °F 13% 30.15 in 10.0 mi West 8.1 mph - N/A   Clear